This demonstration page uses our WeatherBlox Daily Observations layout. Learn more.

Left ArrowRight Arrow

Hourly Observations for December 15, 2017

Temp ( °F °C ) Dew Point ( °F °C ) Humidity (%) Winds ( mph kmh ) Pressure ( in mb ) Visibility ( mi km ) Precip ( " mm )
12:53 am 00:53 Clear 33 0.6 23 -5 66 66 NNE 7 11 30.26 1025 10 16 0.00 0.00
1:53 am 01:53 Clear 30 -1.1 24 -4.4 79 79 N 8 13 30.28 1025 10 16 0.00 0.00
2:53 am 02:53 Cloudy 32 0 25 -3.9 75 75 N 8 13 30.29 1026 10 16 0.00 0.00
3:53 am 03:53 Mostly Cloudy 30 -1.1 24 -4.4 79 79 N 7 11 30.30 1026 10 16 0.00 0.00
4:53 am 04:53 Partly Cloudy 30 -1.1 25 -3.9 82 82 NNW 6 9 30.32 1027 10 16 0.00 0.00
5:53 am 05:53 Clear 29 -1.7 25 -3.9 85 85 W 9 15 30.33 1027 10 16 0.00 0.00
6:53 am 06:53 Clear 29 -1.7 26 -3.3 89 89 NW 7 11 30.34 1028 10 16 0.00 0.00
7:53 am 07:53 Sunny 26 -3.3 24 -4.4 92 92 N 7 11 30.37 1029 10 16 0.00 0.00
8:53 am 08:53 Sunny 32 0 27 -2.8 82 82 N 3 6 30.38 1029 10 16 0.00 0.00
9:53 am 09:53 Sunny 41 5 28 -2.2 60 60 N 6 9 30.37 1029 10 16 0.00 0.00
10:53 am 10:53 Sunny 45 7.2 28 -2.2 52 52 VRB 3 6 30.37 1029 10 16 0.00 0.00
11:53 am 11:53 Sunny 48 8.9 26 -3.3 42 42 VRB 7 11 30.34 1027 10 16 0.00 0.00
12:53 pm 12:53 Sunny 50 10 26 -3.3 39 39 WSW 6 9 30.28 1025 10 16 0.00 0.00
1:53 pm 13:53 Sunny 51 10.6 26 -3.3 38 38 W 8 13 30.24 1024 10 16 0.00 0.00
2:53 pm 14:53 Sunny 52 11.1 26 -3.3 37 37 WSW 5 7 30.20 1023 10 16 0.00 0.00
3:53 pm 15:53 Sunny 53 11.7 26 -3.3 35 35 SW 7 11 30.18 1022 10 16 0.00 0.00
4:53 pm 16:53 Sunny 52 11.1 25 -3.9 35 35 SSW 8 13 30.18 1022 10 16 0.00 0.00
5:53 pm 17:53 Clear 46 7.8 26 -3.3 46 46 SSW 6 9 30.19 1022 10 16 0.00 0.00
6:53 pm 18:53 Clear 39 3.9 27 -2.8 62 62 SSE 8 13 30.20 1023 10 16 0.00 0.00
7:53 pm 19:53 Clear 38 3.3 26 -3.3 62 62 SSE 6 9 30.20 1023 10 16 0.00 0.00
8:53 pm 20:53 Clear 36 2.2 26 -3.3 67 67 SSE 7 11 30.18 1022 10 16 0.00 0.00
9:53 pm 21:53 Clear 34 1.1 26 -3.3 73 73 SE 8 13 30.15 1021 10 16 0.00 0.00
10:53 pm 22:53 Clear 36 2.2 27 -2.8 70 70 SE 12 19 30.13 1020 10 16 0.00 0.00
11:53 pm 23:53 Clear 35 1.7 26 -3.3 70 70 SE 9 15 30.11 1020 10 16 0.00 0.00

Powered by AerisWeather